• In Netherlands
  • List of Countries
  • For 7 days
  • Water Temperature
  • Satellite Maps
  • Weather Map
  • Weather Widgets
  • user-avatar
    Login

    Hourly Weather Ordino

    Today, 16 August, Wednesday

    Time Temperature Precipitation Wind Pressure Humidity
    00:00 +14°C° 0 mm 1 mps 638 mmHg 77%
    01:00 +13°C° 0 mm 1 mps 638 mmHg 78%
    02:00 +13°C° 0 mm 1 mps 638 mmHg 78%
    03:00 +13°C° 0 mm 1 mps 637 mmHg 79%
    04:00 +13°C° 0 mm 1 mps 638 mmHg 78%
    05:00 +14°C° 0 mm 1 mps 638 mmHg 77%
    06:00 +15°C° 0 mm 1 mps 638 mmHg 72%
    07:00 +18°C° 0 mm 1 mps 639 mmHg 66%
    08:00 +20°C° 0 mm 1 mps 640 mmHg 61%
    09:00 +21°C° 0 mm 2 mps 641 mmHg 56%
    10:00 +23°C° 0 mm 2 mps 641 mmHg 52%
    11:00 +24°C° 0 mm 2 mps 641 mmHg 49%
    12:00 +25°C° 0 mm 2 mps 641 mmHg 45%
    13:00 +25°C° 0.1 mm 2 mps 641 mmHg 47%
    14:00 +25°C° 0.1 mm 2 mps 641 mmHg 49%
    15:00 +25°C° 0.1 mm 2 mps 641 mmHg 50%
    16:00 +23°C° 0.3 mm 2 mps 640 mmHg 57%
    17:00 +21°C° 0.3 mm 2 mps 640 mmHg 64%
    18:00 +21°C° 0.3 mm 1 mps 639 mmHg 70%
    19:00 +20°C° 0.1 mm 1 mps 639 mmHg 76%
    20:00 +18°C° 0.1 mm 1 mps 639 mmHg 82%
    21:00 +16°C° 0.1 mm 1 mps 639 mmHg 87%
    22:00 +15°C° 0 mm 1 mps 639 mmHg 88%
    23:00 +15°C° 0 mm 1 mps 639 mmHg 89%

    Tomorrow, 17 August, Thursday

    Time Temperature Precipitation Wind Pressure Humidity
    00:00 +15°C° 0 mm 1 mps 638 mmHg 90%
    01:00 +14°C° 0 mm 1 mps 638 mmHg 89%
    02:00 +14°C° 0 mm 1 mps 638 mmHg 89%
    03:00 +14°C° 0 mm 1 mps 638 mmHg 89%
    04:00 +14°C° 0 mm 1 mps 638 mmHg 88%
    05:00 +14°C° 0 mm 1 mps 638 mmHg 86%
    06:00 +15°C° 0 mm 1 mps 638 mmHg 85%
    07:00 +18°C° 0 mm 1 mps 639 mmHg 74%
    08:00 +21°C° 0 mm 1 mps 640 mmHg 64%
    09:00 +23°C° 0 mm 1 mps 641 mmHg 54%
    10:00 +24°C° 0 mm 1 mps 641 mmHg 50%
    11:00 +25°C° 0 mm 2 mps 641 mmHg 46%
    12:00 +26°C° 0 mm 2 mps 641 mmHg 43%
    13:00 +26°C° 0 mm 2 mps 641 mmHg 44%
    14:00 +26°C° 0 mm 2 mps 640 mmHg 45%
    15:00 +26°C° 0 mm 2 mps 640 mmHg 47%
    16:00 +25°C° 0 mm 2 mps 640 mmHg 51%
    17:00 +24°C° 0 mm 1 mps 639 mmHg 56%
    18:00 +22°C° 0 mm 1 mps 639 mmHg 61%
    19:00 +21°C° 0 mm 1 mps 638 mmHg 66%
    20:00 +19°C° 0 mm 1 mps 638 mmHg 71%
    21:00 +16°C° 0 mm 1 mps 638 mmHg 76%
    22:00 +16°C° 0 mm 1 mps 638 mmHg 77%
    23:00 +16°C° 0 mm 1 mps 637 mmHg 78%

    Day after tomorrow, 18 August, Friday

    Time Temperature Precipitation Wind Pressure Humidity
    00:00 +16°C° 0 mm 1 mps 637 mmHg 78%
    01:00 +15°C° 0 mm 1 mps 637 mmHg 78%
    02:00 +15°C° 0 mm 1 mps 637 mmHg 78%
    03:00 +15°C° 0 mm 1 mps 636 mmHg 78%
    04:00 +15°C° 0 mm 1 mps 636 mmHg 77%
    05:00 +15°C° 0 mm 1 mps 636 mmHg 76%
    06:00 +16°C° 0 mm 1 mps 637 mmHg 75%
    07:00 +19°C° 0 mm 1 mps 637 mmHg 66%
    08:00 +20°C° 0 mm 2 mps 638 mmHg 58%
    09:00 +24°C° 0 mm 2 mps 639 mmHg 49%
    10:00 +24°C° 0 mm 2 mps 639 mmHg 47%
    11:00 +25°C° 0 mm 3 mps 640 mmHg 46%
    12:00 +26°C° 0 mm 3 mps 640 mmHg 44%
    13:00 +25°C° 0.2 mm 3 mps 639 mmHg 51%
    14:00 +22°C° 0.2 mm 3 mps 639 mmHg 59%
    15:00 +21°C° 0.2 mm 3 mps 638 mmHg 66%
    16:00 +20°C° 1.1 mm 3 mps 638 mmHg 71%
    17:00 +18°C° 1.1 mm 3 mps 638 mmHg 76%
    18:00 +17°C° 1.1 mm 3 mps 638 mmHg 81%
    19:00 +16°C° 0.6 mm 3 mps 638 mmHg 84%
    20:00 +15°C° 0.6 mm 2 mps 638 mmHg 88%
    21:00 +14°C° 0.6 mm 2 mps 638 mmHg 92%
    22:00 +14°C° 0.2 mm 2 mps 638 mmHg 92%
    23:00 +14°C° 0.2 mm 2 mps 638 mmHg 92%

    19 August, Saturday

    Time Temperature Precipitation Wind Pressure Humidity
    00:00 +13°C° 0.2 mm 2 mps 638 mmHg 92%
    01:00 +13°C° 0 mm 2 mps 638 mmHg 93%
    02:00 +13°C° 0 mm 2 mps 638 mmHg 93%
    03:00 +13°C° 0 mm 2 mps 638 mmHg 93%
    04:00 +12°C° 0 mm 2 mps 638 mmHg 93%
    05:00 +12°C° 0 mm 2 mps 638 mmHg 93%
    06:00 +12°C° 0 mm 2 mps 638 mmHg 92%
    07:00 +13°C° 0 mm 2 mps 639 mmHg 86%
    08:00 +14°C° 0 mm 2 mps 639 mmHg 80%
    09:00 +16°C° 0 mm 2 mps 640 mmHg 74%
    10:00 +17°C° 0 mm 2 mps 640 mmHg 66%
    11:00 +19°C° 0 mm 2 mps 641 mmHg 57%
    12:00 +20°C° 0 mm 2 mps 641 mmHg 49%
    13:00 +20°C° 0 mm 2 mps 641 mmHg 48%
    14:00 +20°C° 0 mm 2 mps 641 mmHg 47%
    15:00 +20°C° 0 mm 2 mps 641 mmHg 47%
    16:00 +19°C° 0 mm 2 mps 640 mmHg 51%
    17:00 +18°C° 0 mm 2 mps 640 mmHg 55%
    18:00 +17°C° 0 mm 2 mps 639 mmHg 60%
    19:00 +15°C° 0 mm 2 mps 639 mmHg 65%
    20:00 +14°C° 0 mm 2 mps 639 mmHg 70%
    21:00 +12°C° 0 mm 2 mps 639 mmHg 75%
    22:00 +12°C° 0 mm 2 mps 639 mmHg 76%
    23:00 +10°C° 0 mm 2 mps 639 mmHg 76%

    20 August, Sunday

    Time Temperature Precipitation Wind Pressure Humidity
    00:00 +10°C° 0 mm 2 mps 639 mmHg 77%
    01:00 +9°C° 0 mm 2 mps 639 mmHg 77%
    02:00 +9°C° 0 mm 2 mps 638 mmHg 76%
    03:00 +9°C° 0 mm 2 mps 638 mmHg 76%
    04:00 +9°C° 0 mm 2 mps 638 mmHg 74%
    05:00 +9°C° 0 mm 2 mps 639 mmHg 71%
    06:00 +9°C° 0 mm 2 mps 639 mmHg 68%
    07:00 +13°C° 0 mm 2 mps 640 mmHg 57%
    08:00 +16°C° 0 mm 2 mps 641 mmHg 45%
    09:00 +18°C° 0 mm 2 mps 642 mmHg 33%
    10:00 +20°C° 0 mm 2 mps 642 mmHg 31%
    11:00 +21°C° 0 mm 2 mps 642 mmHg 28%
    12:00 +24°C° 0 mm 2 mps 642 mmHg 26%
    13:00 +24°C° 0 mm 2 mps 642 mmHg 27%
    14:00 +24°C° 0 mm 2 mps 642 mmHg 28%
    15:00 +24°C° 0 mm 2 mps 641 mmHg 29%
    16:00 +21°C° 0 mm 2 mps 641 mmHg 36%
    17:00 +20°C° 0 mm 1 mps 640 mmHg 43%
    18:00 +19°C° 0 mm 1 mps 640 mmHg 49%
    19:00 +16°C° 0 mm 1 mps 639 mmHg 53%
    20:00 +14°C° 0 mm 1 mps 639 mmHg 56%
    21:00 +13°C° 0 mm 1 mps 639 mmHg 59%
    22:00 +13°C° 0 mm 1 mps 639 mmHg 59%
    23:00 +12°C° 0 mm 1 mps 639 mmHg 59%

    21 August, Monday

    Time Temperature Precipitation Wind Pressure Humidity
    00:00 +12°C° 0 mm 1 mps 638 mmHg 59%
    01:00 +12°C° 0 mm 1 mps 638 mmHg 58%
    02:00 +12°C° 0 mm 1 mps 638 mmHg 57%
    03:00 +12°C° 0 mm 1 mps 638 mmHg 57%
    04:00 +12°C° 0 mm 1 mps 638 mmHg 57%
    05:00 +12°C° 0 mm 1 mps 638 mmHg 56%
    06:00 +13°C° 0 mm 1 mps 638 mmHg 56%
    07:00 +16°C° 0 mm 1 mps 639 mmHg 49%
    08:00 +20°C° 0 mm 1 mps 640 mmHg 41%
    09:00 +23°C° 0 mm 1 mps 642 mmHg 34%
    10:00 +24°C° 0 mm 1 mps 642 mmHg 32%
    11:00 +25°C° 0 mm 1 mps 642 mmHg 30%
    12:00 +27°C° 0 mm 1 mps 642 mmHg 27%
    13:00 +27°C° 0 mm 1 mps 642 mmHg 28%
    14:00 +27°C° 0 mm 2 mps 641 mmHg 28%
    15:00 +27°C° 0 mm 2 mps 641 mmHg 28%
    16:00 +25°C° 0 mm 1 mps 640 mmHg 35%
    17:00 +23°C° 0 mm 1 mps 640 mmHg 42%
    18:00 +21°C° 0 mm 1 mps 639 mmHg 49%
    19:00 +19°C° 0 mm 1 mps 639 mmHg 52%
    20:00 +18°C° 0 mm 1 mps 638 mmHg 55%
    21:00 +15°C° 0 mm 1 mps 638 mmHg 58%
    22:00 +15°C° 0 mm 1 mps 638 mmHg 58%
    23:00 +14°C° 0 mm 1 mps 638 mmHg 57%
    Show more